TimeEDT,TemperatureF,Dew PointF,Humidity,Sea Level PressureIn,VisibilityMPH,Wind Direction,Wind SpeedMPH,Gust SpeedMPH,PrecipitationIn,Events,Conditions,WindDirDegrees,DateUTC
12:54 AM,62.1,45.0,53,29.58,10.0,South,15.0,-,N/A,,Clear,170,2012-10-18 04:54:00
1:54 AM,62.1,45.0,53,29.56,10.0,SSE,15.0,-,N/A,,Clear,160,2012-10-18 05:54:00
2:52 AM,64.4,46.4,52,29.64,10.0,SW,12.7,-,N/A,,Mostly Cloudy,230,2012-10-18 06:52:00
2:54 AM,64.0,46.9,54,29.62,10.0,SW,17.3,21.9,0.00,Rain,Light Rain,230,2012-10-18 06:54:00
3:54 AM,55.9,54.0,93,29.63,10.0,SW,12.7,21.9,0.06,Rain,Light Rain,220,2012-10-18 07:54:00
4:54 AM,55.0,53.1,93,29.60,10.0,SSE,15.0,-,0.03,Rain,Light Rain,160,2012-10-18 08:54:00
5:54 AM,55.0,52.0,89,29.58,10.0,South,21.9,32.2,0.00,,Clear,190,2012-10-18 09:54:00
6:54 AM,55.9,52.0,87,29.60,10.0,SSW,18.4,25.3,N/A,,Overcast,210,2012-10-18 10:54:00
7:17 AM,57.2,51.8,82,29.63,10.0,SSW,17.3,24.2,N/A,,Overcast,210,2012-10-18 11:17:00
7:54 AM,54.0,50.0,86,29.65,10.0,WSW,16.1,24.2,N/A,,Mostly Cloudy,250,2012-10-18 11:54:00
8:43 AM,53.6,48.2,82,29.69,10.0,WSW,9.2,18.4,0.00,,Overcast,240,2012-10-18 12:43:00
8:54 AM,53.1,48.9,86,29.68,10.0,SW,11.5,-,0.00,,Overcast,230,2012-10-18 12:54:00
9:31 AM,53.6,48.2,82,29.71,10.0,WSW,11.5,-,N/A,,Mostly Cloudy,240,2012-10-18 13:31:00
9:54 AM,54.0,50.0,86,29.71,10.0,SW,9.2,-,N/A,,Partly Cloudy,230,2012-10-18 13:54:00
10:54 AM,57.0,46.9,69,29.71,10.0,SW,10.4,19.6,N/A,,Clear,230,2012-10-18 14:54:00
11:54 AM,60.1,43.0,53,29.71,10.0,West,16.1,25.3,N/A,,Partly Cloudy,260,2012-10-18 15:54:00
12:54 PM,60.1,37.9,44,29.72,10.0,WSW,13.8,25.3,N/A,,Clear,250,2012-10-18 16:54:00
1:54 PM,61.0,39.0,44,29.71,10.0,West,12.7,20.7,N/A,,Scattered Clouds,260,2012-10-18 17:54:00
2:54 PM,62.1,33.1,34,29.70,10.0,WSW,12.7,-,N/A,,Scattered Clouds,250,2012-10-18 18:54:00
3:54 PM,63.0,28.9,28,29.69,10.0,SW,11.5,23.0,N/A,,Partly Cloudy,230,2012-10-18 19:54:00
4:54 PM,63.0,26.1,25,29.70,10.0,WSW,19.6,29.9,N/A,,Clear,250,2012-10-18 20:54:00
5:54 PM,61.0,32.0,34,29.70,10.0,SW,9.2,-,N/A,,Clear,220,2012-10-18 21:54:00
6:54 PM,55.9,30.9,39,29.72,10.0,SSW,5.8,-,N/A,,Clear,210,2012-10-18 22:54:00
7:54 PM,54.0,30.0,40,29.73,10.0,South,5.8,-,N/A,,Clear,170,2012-10-18 23:54:00
8:54 PM,52.0,30.9,45,29.73,10.0,SSE,6.9,-,N/A,,Partly Cloudy,150,2012-10-19 00:54:00
9:54 PM,52.0,32.0,47,29.73,10.0,SSE,5.8,-,N/A,,Mostly Cloudy,150,2012-10-19 01:54:00
10:54 PM,52.0,34.0,50,29.72,10.0,South,8.1,-,N/A,,Overcast,180,2012-10-19 02:54:00
11:54 PM,53.1,34.0,48,29.72,10.0,South,8.1,-,N/A,,Overcast,190,2012-10-19 03:54:00